| time (UTC) | temp F | wind direction | speed knots | gust knots | rain 1hr in | rain 24hr in | rain mn in | humidity % | barometer mb |
| 20260902221022 | 80 | 280 | 0.0 | 0.0 | 0.00 | 0.00 | 0.00 | 73 | 1009.3 |
| 20260902220510 | 80 | 307 | 0.0 | 1.7 | 0.00 | 0.00 | 0.00 | 73 | 1009.3 |
| 20260902220020 | 80 | 309 | 0.0 | 1.7 | 0.00 | 0.00 | 0.00 | 72 | 1009.3 |
| 20260902215513 | 81 | 307 | 0.9 | 1.7 | 0.00 | 0.00 | 0.00 | 71 | 1009.3 |
| 20260902215011 | 81 | 302 | 0.9 | 1.7 | 0.00 | 0.00 | 0.00 | 68 | 1009.2 |
| 20260902214526 | 81 | 302 | 0.9 | 1.7 | 0.00 | 0.00 | 0.00 | 65 | 1009.2 |
| 20260902214014 | 82 | 309 | 0.9 | 1.7 | 0.00 | 0.00 | 0.00 | 61 | 1009.2 |
| 20260902213515 | 82 | 307 | 0.9 | 1.7 | 0.00 | 0.00 | 0.00 | 55 | 1009.3 |
| 20260902213034 | 82 | 304 | 0.9 | 1.7 | 0.00 | 0.00 | 0.00 | 53 | 1009.4 |
| 20260902212518 | 83 | 293 | 0.0 | 0.0 | 0.00 | 0.00 | 0.00 | 51 | 1009.5 |
| 20260902212018 | 83 | 89 | 0.0 | 0.0 | 0.00 | 0.00 | 0.00 | 51 | 1009.4 |
| 20260902211533 | 83 | 91 | 0.0 | 0.0 | 0.00 | 0.00 | 0.00 | 51 | 1009.4 |
| 20260902211018 | 83 | 91 | 0.0 | 0.0 | 0.00 | 0.00 | 0.00 | 53 | 1009.4 |
| 20260902210518 | 83 | 91 | 0.0 | 0.9 | 0.00 | 0.00 | 0.00 | 54 | 1009.4 |
| 20260902210033 | 83 | 91 | 0.0 | 2.6 | 0.00 | 0.00 | 0.00 | 53 | 1009.4 |
| 20260902205518 | 83 | 71 | 0.0 | 3.5 | 0.00 | 0.00 | 0.00 | 53 | 1009.4 |
| 20260902205012 | 83 | 55 | 0.9 | 3.5 | 0.00 | 0.00 | 0.00 | 52 | 1009.5 |
| 20260902204520 | 83 | 95 | 0.9 | 1.7 | 0.00 | 0.00 | 0.00 | 52 | 1009.5 |
| 20260902204013 | 82 | 151 | 0.0 | 0.0 | 0.00 | 0.00 | 0.00 | 52 | 1009.5 |
| 20260902203513 | 82 | 163 | 0.0 | 0.0 | 0.00 | 0.00 | 0.00 | 53 | 1009.6 |
| 20260902203030 | 82 | 164 | 0.0 | 1.7 | 0.00 | 0.00 | 0.00 | 53 | 1009.6 |
| 20260902202516 | 82 | 210 | 0.0 | 2.6 | 0.00 | 0.00 | 0.00 | 53 | 1009.5 |
| 20260902202016 | 83 | 211 | 1.7 | 2.6 | 0.00 | 0.00 | 0.00 | 53 | 1009.4 |
| 20260902201538 | 83 | 196 | 0.0 | 1.7 | 0.00 | 0.00 | 0.00 | 51 | 1009.5 |
| 20260902201019 | 83 | 191 | 0.9 | 1.7 | 0.00 | 0.00 | 0.00 | 51 | 1009.5 |
| 20260902200519 | 83 | 141 | 0.0 | 1.7 | 0.00 | 0.00 | 0.00 | 52 | 1009.6 |
| 20260902200035 | 84 | 264 | 0.9 | 1.7 | 0.00 | 0.00 | 0.00 | 50 | 1009.5 |
| 20260902195519 | 83 | 281 | 1.7 | 2.6 | 0.00 | 0.00 | 0.00 | 51 | 1009.5 |
| 20260902195021 | 84 | 245 | 0.0 | 4.3 | 0.00 | 0.00 | 0.00 | 52 | 1009.4 |
| 20260902194551 | 84 | 269 | 1.7 | 7.0 | 0.00 | 0.00 | 0.00 | 53 | 1009.5 |
| 20260902194020 | 84 | 309 | 4.3 | 9.6 | 0.00 | 0.00 | 0.00 | 54 | 1009.3 |
| 20260902193513 | 84 | 306 | 4.3 | 9.6 | 0.00 | 0.00 | 0.00 | 53 | 1009.3 |
| 20260902193024 | 84 | 357 | 5.2 | 10.4 | 0.00 | 0.00 | 0.00 | 54 | 1009.3 |
| 20260902192511 | 84 | 297 | 4.3 | 10.4 | 0.00 | 0.00 | 0.00 | 55 | 1009.2 |
| 20260902192016 | 84 | 312 | 4.3 | 10.4 | 0.00 | 0.00 | 0.00 | 56 | 1009.2 |
| 20260902191537 | 84 | 319 | 5.2 | 11.3 | 0.00 | 0.00 | 0.00 | 56 | 1009.2 |
| 20260902191016 | 84 | 302 | 7.0 | 11.3 | 0.00 | 0.00 | 0.00 | 57 | 1009.2 |
| 20260902190517 | 84 | 319 | 7.0 | 11.3 | 0.00 | 0.00 | 0.00 | 57 | 1009.2 |
| 20260902190036 | 84 | 344 | 7.0 | 10.4 | 0.00 | 0.00 | 0.00 | 58 | 1009.3 |
| 20260902185516 | 84 | 305 | 6.1 | 9.6 | 0.00 | 0.00 | 0.00 | 59 | 1009.3 |
| 20260902185016 | 84 | 319 | 7.0 | 9.6 | 0.00 | 0.00 | 0.00 | 60 | 1009.4 |
| 20260902184534 | 84 | 300 | 6.1 | 9.6 | 0.00 | 0.00 | 0.00 | 62 | 1009.5 |
| 20260902184020 | 84 | 309 | 5.2 | 8.7 | 0.00 | 0.00 | 0.00 | 64 | 1009.6 |
| 20260902183520 | 84 | 302 | 5.2 | 7.8 | 0.00 | 0.00 | 0.00 | 66 | 1009.6 |
| 20260902183041 | 84 | 298 | 5.2 | 7.0 | 0.00 | 0.00 | 0.00 | 66 | 1009.6 |
| 20260902182520 | 84 | 335 | 2.6 | 6.1 | 0.00 | 0.00 | 0.00 | 66 | 1009.6 |
| 20260902182019 | 84 | 335 | 1.7 | 4.3 | 0.00 | 0.00 | 0.00 | 66 | 1009.7 |
| 20260902181526 | 84 | 299 | 1.7 | 3.5 | 0.00 | 0.00 | 0.00 | 66 | 1009.7 |
| 20260902181017 | 84 | 303 | 0.9 | 3.5 | 0.00 | 0.00 | 0.00 | 66 | 1009.6 |
| 20260902180518 | 84 | 301 | 0.9 | 2.6 | 0.00 | 0.00 | 0.00 | 65 | 1009.6 |
| 20260902180032 | 83 | 299 | 0.0 | 1.7 | 0.00 | 0.00 | 0.00 | 65 | 1009.6 |
| 20260902175516 | 83 | 300 | 0.0 | 1.7 | 0.00 | 0.00 | 0.00 | 65 | 1009.6 |
| 20260902175018 | 83 | 295 | 1.7 | 2.6 | 0.00 | 0.00 | 0.00 | 65 | 1009.6 |
| 20260902174535 | 84 | 278 | 1.7 | 2.6 | 0.00 | 0.00 | 0.00 | 65 | 1009.5 |
| 20260902174022 | 84 | 269 | 1.7 | 5.2 | 0.00 | 0.00 | 0.00 | 65 | 1009.5 |
| 20260902173508 | 84 | 262 | 2.6 | 5.2 | 0.00 | 0.00 | 0.00 | 65 | 1009.5 |
| 20260902173016 | 84 | 274 | 4.3 | 6.1 | 0.00 | 0.00 | 0.00 | 64 | 1009.4 |
| 20260902172511 | 84 | 257 | 4.3 | 6.1 | 0.00 | 0.00 | 0.00 | 64 | 1009.3 |
| 20260902172015 | 84 | 269 | 3.5 | 5.2 | 0.00 | 0.00 | 0.00 | 64 | 1009.3 |
| 20260902171525 | 84 | 245 | 3.5 | 6.1 | 0.00 | 0.00 | 0.00 | 64 | 1009.2 |
| 20260902171017 | 84 | 256 | 3.5 | 7.0 | 0.00 | 0.00 | 0.00 | 64 | 1009.2 |
| 20260902170516 | 84 | 223 | 5.2 | 7.8 | 0.00 | 0.00 | 0.00 | 64 | 1009.2 |
| 20260902170030 | 85 | 236 | 3.5 | 8.7 | 0.00 | 0.00 | 0.00 | 64 | 1009.1 |
| 20260902165516 | 85 | 232 | 6.1 | 8.7 | 0.00 | 0.00 | 0.00 | 64 | 1009.1 |
| 20260902165018 | 85 | 240 | 7.0 | 8.7 | 0.00 | 0.00 | 0.00 | 64 | 1009.2 |
| 20260902164532 | 85 | 237 | 5.2 | 10.4 | 0.00 | 0.00 | 0.00 | 66 | 1009.1 |
| 20260902164017 | 84 | 212 | 7.0 | 11.3 | 0.00 | 0.00 | 0.00 | 67 | 1009.1 |
| 20260902163520 | 84 | 235 | 7.8 | 11.3 | 0.00 | 0.00 | 0.00 | 68 | 1009.1 |
| 20260902163032 | 85 | 245 | 7.8 | 11.3 | 0.00 | 0.00 | 0.00 | 68 | 1009.1 |
| 20260902162518 | 85 | 245 | 8.7 | 10.4 | 0.00 | 0.00 | 0.00 | 67 | 1009.1 |
| 20260902162011 | 85 | 249 | 7.8 | 10.4 | 0.00 | 0.00 | 0.00 | 67 | 1009.1 |
| 20260902161519 | 85 | 219 | 7.0 | 10.4 | 0.00 | 0.00 | 0.00 | 66 | 1009.1 |
| 20260902161012 | 85 | 225 | 7.8 | 10.4 | 0.00 | 0.00 | 0.00 | 66 | 1009.1 |
| 20260902160516 | 85 | 214 | 7.0 | 10.4 | 0.00 | 0.00 | 0.00 | 65 | 1009.1 |
| 20260902160025 | 86 | 240 | 7.8 | 10.4 | 0.00 | 0.00 | 0.00 | 64 | 1009.2 |
| 20260902155518 | 86 | 201 | 7.8 | 10.4 | 0.00 | 0.00 | 0.00 | 65 | 1009.2 |
| 20260902155016 | 86 | 224 | 6.1 | 9.6 | 0.00 | 0.00 | 0.00 | 66 | 1009.2 |
| 20260902154544 | 86 | 224 | 7.0 | 10.4 | 0.00 | 0.00 | 0.00 | 64 | 1009.2 |
| 20260902154021 | 86 | 230 | 7.0 | 10.4 | 0.00 | 0.00 | 0.00 | 64 | 1009.2 |
| 20260902153515 | 87 | 214 | 7.0 | 12.2 | 0.00 | 0.00 | 0.00 | 63 | 1009.2 |
| 20260902153033 | 86 | 210 | 8.7 | 12.2 | 0.00 | 0.00 | 0.00 | 63 | 1009.1 |
| 20260902152516 | 87 | 224 | 9.6 | 13.0 | 0.00 | 0.00 | 0.00 | 62 | 1009.2 |
| 20260902152020 | 86 | 226 | 10.4 | 13.0 | 0.00 | 0.00 | 0.00 | 63 | 1009.2 |
| 20260902151537 | 86 | 219 | 11.3 | 13.0 | 0.00 | 0.00 | 0.00 | 63 | 1009.2 |
| 20260902151008 | 86 | 216 | 8.7 | 13.0 | 0.00 | 0.00 | 0.00 | 63 | 1009.3 |
| 20260902150512 | 87 | 226 | 9.6 | 13.0 | 0.00 | 0.00 | 0.00 | 63 | 1009.2 |
| 20260902150020 | 86 | 241 | 10.4 | 13.9 | 0.00 | 0.00 | 0.00 | 63 | 1009.3 |
| 20260902145512 | 87 | 228 | 9.6 | 14.8 | 0.00 | 0.00 | 0.00 | 64 | 1009.3 |
| 20260902145016 | 87 | 232 | 12.2 | 14.8 | 0.00 | 0.00 | 0.00 | 63 | 1009.3 |
| 20260902144529 | 87 | 248 | 10.4 | 13.9 | 0.00 | 0.00 | 0.00 | 62 | 1009.3 |
| 20260902144016 | 87 | 247 | 10.4 | 13.9 | 0.00 | 0.00 | 0.00 | 63 | 1009.3 |
| 20260902143516 | 87 | 210 | 10.4 | 12.2 | 0.00 | 0.00 | 0.00 | 62 | 1009.4 |
| 20260902143030 | 87 | 238 | 8.7 | 14.8 | 0.00 | 0.00 | 0.00 | 63 | 1009.4 |
| 20260902142516 | 87 | 231 | 10.4 | 14.8 | 0.00 | 0.00 | 0.00 | 61 | 1009.5 |
| 20260902142016 | 87 | 222 | 11.3 | 14.8 | 0.00 | 0.00 | 0.00 | 62 | 1009.6 |
| 20260902141535 | 87 | 205 | 8.7 | 13.0 | 0.00 | 0.00 | 0.00 | 60 | 1009.6 |
| 20260902141015 | 88 | 193 | 7.8 | 13.0 | 0.00 | 0.00 | 0.00 | 60 | 1009.6 |
| 20260902140515 | 88 | 191 | 8.7 | 12.2 | 0.00 | 0.00 | 0.00 | 60 | 1009.6 |
| 20260902140039 | 88 | 201 | 7.8 | 12.2 | 0.00 | 0.00 | 0.00 | 61 | 1009.6 |
| 20260902135511 | 88 | 219 | 7.8 | 12.2 | 0.00 | 0.00 | 0.00 | 60 | 1009.6 |
| 20260902135011 | 88 | 205 | 8.7 | 13.9 | 0.00 | 0.00 | 0.00 | 60 | 1009.6 |
| 20260902134522 | 88 | 177 | 8.7 | 13.9 | 0.00 | 0.00 | 0.00 | 60 | 1009.6 |
| 20260902134013 | 89 | 189 | 7.8 | 12.2 | 0.00 | 0.00 | 0.00 | 58 | 1009.6 |
| 20260902133515 | 89 | 234 | 8.7 | 12.2 | 0.00 | 0.00 | 0.00 | 55 | 1009.6 |
| 20260902133026 | 90 | 238 | 7.8 | 12.2 | 0.00 | 0.00 | 0.00 | 53 | 1009.6 |
| 20260902132514 | 90 | 139 | 6.1 | 12.2 | 0.00 | 0.00 | 0.00 | 52 | 1009.7 |
| 20260902132018 | 90 | 238 | 7.8 | 12.2 | 0.00 | 0.00 | 0.00 | 51 | 1009.7 |
| 20260902131532 | 90 | 207 | 7.8 | 12.2 | 0.00 | 0.00 | 0.00 | 52 | 1009.7 |
| 20260902131015 | 90 | 234 | 9.6 | 13.9 | 0.00 | 0.00 | 0.00 | 50 | 1009.7 |
| 20260902130517 | 89 | 203 | 7.8 | 13.9 | 0.00 | 0.00 | 0.00 | 50 | 1009.7 |
| 20260902130047 | 90 | 207 | 8.7 | 12.2 | 0.00 | 0.00 | 0.00 | 50 | 1009.7 |
| 20260902125518 | 90 | 203 | 7.8 | 13.9 | 0.00 | 0.00 | 0.00 | 48 | 1009.7 |
| 20260902125020 | 90 | 199 | 8.7 | 13.9 | 0.00 | 0.00 | 0.00 | 53 | 1009.8 |
| 20260902124533 | 90 | 195 | 8.7 | 13.0 | 0.00 | 0.00 | 0.00 | 52 | 1009.8 |
| 20260902124010 | 90 | 166 | 10.4 | 13.0 | 0.00 | 0.00 | 0.00 | 51 | 1009.8 |
| 20260902123512 | 90 | 195 | 8.7 | 12.2 | 0.00 | 0.00 | 0.00 | 52 | 1009.8 |
| 20260902123029 | 90 | 210 | 8.7 | 12.2 | 0.00 | 0.00 | 0.00 | 50 | 1009.9 |
| 20260902122516 | 89 | 176 | 7.0 | 11.3 | 0.00 | 0.00 | 0.00 | 47 | 1010.0 |
| 20260902122017 | 88 | 208 | 7.0 | 11.3 | 0.00 | 0.00 | 0.00 | 53 | 1010.0 |
| 20260902121531 | 87 | 165 | 7.8 | 12.2 | 0.00 | 0.00 | 0.00 | 56 | 1010.0 |
| 20260902121019 | 87 | 213 | 7.8 | 12.2 | 0.00 | 0.00 | 0.00 | 60 | 1010.1 |
| 20260902120519 | 87 | 202 | 9.6 | 13.9 | 0.00 | 0.00 | 0.00 | 61 | 1010.2 |
| 20260902120033 | 87 | 181 | 9.6 | 13.9 | 0.00 | 0.00 | 0.00 | 62 | 1010.2 |
| 20260902115515 | 87 | 191 | 9.6 | 13.0 | 0.00 | 0.00 | 0.00 | 62 | 1010.3 |
| 20260902115022 | 87 | 205 | 9.6 | 13.9 | 0.00 | 0.00 | 0.00 | 61 | 1010.4 |
| 20260902114534 | 87 | 207 | 9.6 | 13.9 | 0.00 | 0.00 | 0.00 | 62 | 1010.5 |
| 20260902114019 | 87 | 188 | 10.4 | 13.9 | 0.00 | 0.00 | 0.00 | 62 | 1010.6 |
| 20260902113520 | 87 | 174 | 9.6 | 13.9 | 0.00 | 0.00 | 0.00 | 61 | 1010.6 |
| 20260902113031 | 87 | 162 | 9.6 | 13.0 | 0.00 | 0.00 | 0.00 | 65 | 1010.6 |
| 20260902112512 | 87 | 151 | 10.4 | 13.0 | 0.00 | 0.00 | 0.00 | 66 | 1010.6 |
| 20260902112014 | 86 | 165 | 9.6 | 13.0 | 0.00 | 0.00 | 0.00 | 64 | 1010.5 |
| 20260902111531 | 86 | 162 | 10.4 | 12.2 | 0.00 | 0.00 | 0.00 | 66 | 1010.5 |
| 20260902111017 | 86 | 127 | 9.6 | 12.2 | 0.00 | 0.00 | 0.00 | 65 | 1010.5 |
| 20260902110516 | 86 | 166 | 8.7 | 12.2 | 0.00 | 0.00 | 0.00 | 64 | 1010.5 |
| 20260902110042 | 87 | 141 | 7.8 | 12.2 | 0.00 | 0.00 | 0.00 | 65 | 1010.5 |
| 20260902105515 | 87 | 134 | 9.6 | 12.2 | 0.00 | 0.00 | 0.00 | 65 | 1010.6 |
| 20260902105022 | 87 | 172 | 7.0 | 12.2 | 0.00 | 0.00 | 0.00 | 64 | 1010.7 |
| 20260902104538 | 86 | 181 | 9.6 | 12.2 | 0.00 | 0.00 | 0.00 | 65 | 1010.7 |
| 20260902104019 | 87 | 139 | 7.8 | 12.2 | 0.00 | 0.00 | 0.00 | 62 | 1010.7 |
| 20260902103516 | 86 | 158 | 7.0 | 11.3 | 0.00 | 0.00 | 0.00 | 65 | 1010.8 |
| 20260902103034 | 86 | 155 | 8.7 | 10.4 | 0.00 | 0.00 | 0.00 | 63 | 1010.9 |
| 20260902102517 | 86 | 146 | 7.8 | 9.6 | 0.00 | 0.00 | 0.00 | 63 | 1010.9 |
| 20260902102016 | 86 | 133 | 7.8 | 9.6 | 0.00 | 0.00 | 0.00 | 63 | 1010.9 |
| 20260902101536 | 87 | 149 | 7.8 | 9.6 | 0.00 | 0.00 | 0.00 | 59 | 1010.9 |
| 20260902101013 | 87 | 141 | 6.1 | 7.8 | 0.00 | 0.00 | 0.00 | 58 | 1010.9 |
| 20260902100514 | 87 | 125 | 5.2 | 7.8 | 0.00 | 0.00 | 0.00 | 57 | 1010.9 |
| 20260902100025 | 87 | 122 | 4.3 | 7.8 | 0.00 | 0.00 | 0.00 | 61 | 1010.8 |
| 20260902095517 | 87 | 129 | 6.1 | 7.8 | 0.00 | 0.00 | 0.00 | 62 | 1010.8 |
| 20260902095017 | 87 | 132 | 5.2 | 8.7 | 0.00 | 0.00 | 0.00 | 61 | 1010.8 |
| 20260902094531 | 86 | 131 | 5.2 | 9.6 | 0.00 | 0.00 | 0.00 | 62 | 1010.8 |
| 20260902094022 | 87 | 142 | 5.2 | 9.6 | 0.00 | 0.00 | 0.00 | 58 | 1011.1 |
| 20260902093518 | 87 | 127 | 5.2 | 8.7 | 0.00 | 0.00 | 0.00 | 59 | 1011.1 |
| 20260902093039 | 86 | 114 | 7.0 | 8.7 | 0.00 | 0.00 | 0.00 | 59 | 1011.3 |
| 20260902092519 | 86 | 115 | 6.1 | 8.7 | 0.00 | 0.00 | 0.00 | 59 | 1011.3 |
| 20260902092015 | 86 | 138 | 7.0 | 10.4 | 0.00 | 0.00 | 0.00 | 60 | 1011.4 |
| 20260902091535 | 86 | 129 | 6.1 | 10.4 | 0.00 | 0.00 | 0.00 | 61 | 1011.4 |
| 20260902091024 | 86 | 139 | 7.0 | 9.6 | 0.00 | 0.00 | 0.00 | 64 | 1011.4 |
| 20260902090520 | 87 | 142 | 6.1 | 9.6 | 0.00 | 0.00 | 0.00 | 59 | 1011.3 |
| 20260902090031 | 88 | 124 | 4.3 | 7.8 | 0.00 | 0.00 | 0.00 | 59 | 1011.3 |
| 20260902085515 | 88 | 138 | 3.5 | 6.1 | 0.00 | 0.00 | 0.00 | 56 | 1011.3 |
| 20260902085016 | 88 | 74 | 2.6 | 3.5 | 0.00 | 0.00 | 0.00 | 57 | 1011.3 |
| 20260902084529 | 88 | 102 | 1.7 | 4.3 | 0.00 | 0.00 | 0.00 | 58 | 1011.3 |
| 20260902084016 | 87 | 171 | 1.7 | 7.0 | 0.00 | 0.00 | 0.00 | 59 | 1011.4 |
| 20260902083504 | 86 | 139 | 3.5 | 7.0 | 0.00 | 0.00 | 0.00 | 60 | 1011.5 |
| 20260902083008 | 86 | 143 | 5.2 | 8.7 | 0.00 | 0.00 | 0.00 | 62 | 1011.7 |
| 20260902082508 | 86 | 167 | 5.2 | 9.6 | 0.00 | 0.00 | 0.00 | 62 | 1011.7 |
| 20260902082008 | 86 | 144 | 6.1 | 9.6 | 0.00 | 0.00 | 0.00 | 62 | 1011.7 |
| 20260902081510 | 86 | 159 | 5.2 | 7.8 | 0.00 | 0.00 | 0.00 | 60 | 1011.7 |
| 20260902081006 | 85 | 143 | 6.1 | 7.8 | 0.00 | 0.00 | 0.00 | 61 | 1011.7 |
| 20260902080506 | 85 | 105 | 6.1 | 7.8 | 0.00 | 0.00 | 0.00 | 62 | 1011.7 |
| 20260902080018 | 84 | 115 | 6.1 | 8.7 | 0.00 | 0.00 | 0.00 | 63 | 1011.7 |
| 20260902075506 | 84 | 120 | 5.2 | 8.7 | 0.00 | 0.00 | 0.00 | 63 | 1011.8 |
| 20260902075008 | 84 | 139 | 6.1 | 8.7 | 0.00 | 0.00 | 0.00 | 65 | 1011.8 |
| 20260902074510 | 84 | 181 | 6.1 | 9.6 | 0.00 | 0.00 | 0.00 | 65 | 1011.8 |
| 20260902074009 | 84 | 141 | 6.1 | 9.6 | 0.00 | 0.00 | 0.00 | 65 | 1011.7 |
| 20260902073507 | 84 | 140 | 7.0 | 9.6 | 0.00 | 0.00 | 0.00 | 66 | 1011.7 |
| 20260902073024 | 84 | 89 | 6.1 | 7.8 | 0.00 | 0.00 | 0.00 | 67 | 1011.5 |
| 20260902072503 | 84 | 132 | 5.2 | 7.8 | 0.00 | 0.00 | 0.00 | 68 | 1011.5 |
| 20260902072004 | 84 | 131 | 7.0 | 7.8 | 0.00 | 0.00 | 0.00 | 68 | 1011.5 |
| 20260902071516 | 84 | 133 | 6.1 | 7.8 | 0.00 | 0.00 | 0.00 | 68 | 1011.6 |
| 20260902071007 | 85 | 145 | 6.1 | 7.0 | 0.00 | 0.00 | 0.00 | 66 | 1011.5 |
| 20260902070510 | 85 | 142 | 3.5 | 7.0 | 0.00 | 0.00 | 0.00 | 64 | 1011.5 |
| 20260902070014 | 85 | 134 | 4.3 | 7.0 | 0.00 | 0.00 | 0.00 | 65 | 1011.4 |
| 20260902065510 | 85 | 113 | 1.7 | 7.0 | 0.00 | 0.00 | 0.00 | 66 | 1011.4 |
| 20260902065010 | 84 | 115 | 3.5 | 5.2 | 0.00 | 0.00 | 0.00 | 67 | 1011.4 |
| 20260902064512 | 84 | 129 | 4.3 | 6.1 | 0.00 | 0.00 | 0.00 | 66 | 1011.4 |
| 20260902064009 | 84 | 129 | 4.3 | 6.1 | 0.00 | 0.00 | 0.00 | 68 | 1011.3 |
| 20260902063507 | 85 | 133 | 4.3 | 6.1 | 0.00 | 0.00 | 0.00 | 67 | 1011.4 |
| 20260902063017 | 85 | 141 | 1.7 | 5.2 | 0.00 | 0.00 | 0.00 | 65 | 1011.4 |
| 20260902062509 | 85 | 122 | 1.7 | 5.2 | 0.00 | 0.00 | 0.00 | 61 | 1011.3 |
| 20260902062011 | 85 | 119 | 2.6 | 4.3 | 0.00 | 0.00 | 0.00 | 59 | 1011.3 |
| 20260902061515 | 86 | 125 | 1.7 | 4.3 | 0.00 | 0.00 | 0.00 | 58 | 1011.3 |
| 20260902061011 | 86 | 112 | 0.9 | 2.6 | 0.00 | 0.00 | 0.00 | 59 | 1011.3 |
| 20260902060513 | 84 | 243 | 0.9 | 1.7 | 0.00 | 0.00 | 0.00 | 59 | 1011.3 |
| 20260902060010 | 84 | 271 | 0.9 | 3.5 | 0.00 | 0.00 | 0.00 | 63 | 1011.2 |
| 20260902055510 | 84 | 268 | 1.7 | 3.5 | 0.00 | 0.00 | 0.00 | 64 | 1011.2 |
| 20260902055012 | 84 | 273 | 1.7 | 2.6 | 0.00 | 0.00 | 0.00 | 63 | 1011.2 |
| 20260902054522 | 84 | 234 | 0.0 | 2.6 | 0.00 | 0.00 | 0.00 | 63 | 1011.2 |
| 20260902054008 | 83 | 286 | 0.9 | 2.6 | 0.00 | 0.00 | 0.00 | 64 | 1011.3 |
| 20260902053512 | 83 | 285 | 0.0 | 1.7 | 0.00 | 0.00 | 0.00 | 60 | 1011.3 |
| 20260902053016 | 83 | 307 | 0.0 | 0.9 | 0.00 | 0.00 | 0.00 | 62 | 1011.3 |
| 20260902052508 | 83 | 307 | 0.0 | 0.9 | 0.00 | 0.00 | 0.00 | 61 | 1011.3 |
| 20260902052011 | 82 | 307 | 0.0 | 1.7 | 0.00 | 0.00 | 0.00 | 54 | 1011.3 |
| 20260902051519 | 81 | 307 | 0.9 | 2.6 | 0.00 | 0.00 | 0.00 | 52 | 1011.2 |
| 20260902051010 | 80 | 307 | 1.7 | 2.6 | 0.00 | 0.00 | 0.00 | 51 | 1011.2 |
| 20260902050515 | 80 | 307 | 1.7 | 2.6 | 0.00 | 0.00 | 0.00 | 48 | 1011.2 |
| 20260902050015 | 79 | 304 | 1.7 | 2.6 | 0.00 | 0.00 | 0.00 | 49 | 1011.2 |
| 20260902045508 | 78 | 304 | 2.6 | 2.6 | 0.00 | 0.00 | 0.00 | 50 | 1011.1 |
| 20260902045007 | 78 | 307 | 2.6 | 2.6 | 0.00 | 0.00 | 0.00 | 53 | 1011.1 |
| 20260902044515 | 77 | 302 | 2.6 | 2.6 | 0.00 | 0.00 | 0.00 | 53 | 1011.1 |
| 20260902044012 | 77 | 308 | 1.7 | 2.6 | 0.00 | 0.00 | 0.00 | 56 | 1011.0 |
| 20260902043511 | 76 | 309 | 2.6 | 2.6 | 0.00 | 0.00 | 0.00 | 55 | 1011.0 |
| 20260902043015 | 75 | 304 | 0.9 | 2.6 | 0.00 | 0.00 | 0.00 | 60 | 1011.1 |
| 20260902042510 | 75 | 292 | 2.6 | 2.6 | 0.00 | 0.00 | 0.00 | 61 | 1011.1 |
| 20260902042013 | 75 | 297 | 2.6 | 3.5 | 0.00 | 0.00 | 0.00 | 59 | 1011.1 |
| 20260902041518 | 75 | 305 | 2.6 | 3.5 | 0.00 | 0.00 | 0.00 | 60 | 1011.1 |
| 20260902041011 | 75 | 291 | 3.5 | 4.3 | 0.00 | 0.00 | 0.00 | 60 | 1011.1 |
| 20260902040511 | 76 | 290 | 3.5 | 4.3 | 0.00 | 0.00 | 0.00 | 58 | 1011.1 |
| 20260902040019 | 76 | 296 | 3.5 | 4.3 | 0.00 | 0.00 | 0.00 | 55 | 1011.1 |
| 20260902035510 | 77 | 296 | 3.5 | 4.3 | 0.00 | 0.00 | 0.00 | 54 | 1011.1 |
| 20260902035010 | 77 | 294 | 3.5 | 3.5 | 0.00 | 0.00 | 0.00 | 54 | 1011.0 |
| 20260902034518 | 77 | 301 | 2.6 | 4.3 | 0.00 | 0.00 | 0.00 | 55 | 1011.0 |
| 20260902034007 | 77 | 301 | 2.6 | 4.3 | 0.00 | 0.00 | 0.00 | 55 | 1011.0 |
| 20260902033517 | 77 | 297 | 3.5 | 4.3 | 0.00 | 0.00 | 0.00 | 53 | 1010.9 |
| 20260902033013 | 77 | 285 | 3.5 | 4.3 | 0.00 | 0.00 | 0.00 | 52 | 1010.9 |
| 20260902032512 | 77 | 295 | 3.5 | 4.3 | 0.00 | 0.00 | 0.00 | 54 | 1010.9 |
| 20260902032020 | 77 | 285 | 2.6 | 2.6 | 0.00 | 0.00 | 0.00 | 54 | 1010.9 |
| 20260902031516 | 78 | 285 | 1.7 | 3.5 | 0.00 | 0.00 | 0.00 | 51 | 1010.9 |
| 20260902031012 | 77 | 301 | 2.6 | 4.3 | 0.00 | 0.00 | 0.00 | 53 | 1010.8 |
| 20260902030510 | 76 | 306 | 3.5 | 4.3 | 0.00 | 0.00 | 0.00 | 56 | 1010.8 |
| 20260902030019 | 75 | 301 | 2.6 | 3.5 | 0.00 | 0.00 | 0.00 | 59 | 1010.8 |
| 20260902025512 | 75 | 302 | 1.7 | 3.5 | 0.00 | 0.00 | 0.00 | 61 | 1010.8 |
| 20260902025014 | 75 | 302 | 2.6 | 3.5 | 0.00 | 0.00 | 0.00 | 61 | 1010.8 |
| 20260902024517 | 75 | 297 | 2.6 | 2.6 | 0.00 | 0.00 | 0.00 | 63 | 1010.8 |
| 20260902024013 | 75 | 294 | 2.6 | 2.6 | 0.00 | 0.00 | 0.00 | 62 | 1010.7 |
| 20260902023511 | 75 | 295 | 2.6 | 2.6 | 0.00 | 0.00 | 0.00 | 62 | 1010.7 |
| 20260902023033 | 76 | 284 | 1.7 | 3.5 | 0.00 | 0.00 | 0.00 | 60 | 1010.7 |
| 20260902022511 | 76 | 296 | 1.7 | 5.2 | 0.00 | 0.00 | 0.00 | 60 | 1010.7 |
| 20260902022014 | 76 | 311 | 2.6 | 5.2 | 0.00 | 0.00 | 0.00 | 57 | 1010.6 |
| 20260902021531 | 76 | 308 | 4.3 | 5.2 | 0.00 | 0.00 | 0.00 | 57 | 1010.6 |
| 20260902021016 | 76 | 304 | 2.6 | 4.3 | 0.00 | 0.00 | 0.00 | 61 | 1010.5 |
| 20260902020514 | 76 | 310 | 2.6 | 3.5 | 0.00 | 0.00 | 0.00 | 59 | 1010.5 |
| 20260902020022 | 76 | 325 | 0.9 | 2.6 | 0.00 | 0.00 | 0.00 | 60 | 1010.5 |
| 20260902015516 | 76 | 312 | 1.7 | 2.6 | 0.00 | 0.00 | 0.00 | 60 | 1010.5 |
| 20260902015014 | 76 | 301 | 1.7 | 3.5 | 0.00 | 0.00 | 0.00 | 60 | 1010.5 |
| 20260902014525 | 76 | 304 | 1.7 | 3.5 | 0.00 | 0.00 | 0.00 | 61 | 1010.5 |
| 20260902014012 | 76 | 304 | 2.6 | 3.5 | 0.00 | 0.00 | 0.00 | 60 | 1010.6 |
| 20260902013511 | 76 | 307 | 2.6 | 3.5 | 0.00 | 0.00 | 0.00 | 63 | 1010.6 |
| 20260902013022 | 76 | 308 | 2.6 | 2.6 | 0.00 | 0.00 | 0.00 | 65 | 1010.6 |
| 20260902012514 | 76 | 304 | 2.6 | 3.5 | 0.00 | 0.00 | 0.00 | 65 | 1010.5 |
| 20260902012017 | 77 | 302 | 2.6 | 4.3 | 0.00 | 0.00 | 0.00 | 63 | 1010.5 |
| 20260902011514 | 77 | 297 | 3.5 | 4.3 | 0.00 | 0.00 | 0.00 | 62 | 1010.5 |
| 20260902011012 | 77 | 295 | 3.5 | 4.3 | 0.00 | 0.00 | 0.00 | 61 | 1010.5 |
| 20260902010512 | 77 | 298 | 3.5 | 3.5 | 0.00 | 0.00 | 0.00 | 64 | 1010.5 |
| 20260902010022 | 77 | 303 | 2.6 | 3.5 | 0.00 | 0.00 | 0.00 | 62 | 1010.4 |
| 20260902005515 | 78 | 311 | 1.7 | 3.5 | 0.00 | 0.00 | 0.00 | 59 | 1010.4 |
| 20260902005013 | 78 | 309 | 0.9 | 2.6 | 0.00 | 0.00 | 0.00 | 57 | 1010.4 |
| 20260902004527 | 78 | 311 | 0.9 | 2.6 | 0.00 | 0.00 | 0.00 | 59 | 1010.3 |
| 20260902004013 | 79 | 310 | 1.7 | 1.7 | 0.00 | 0.00 | 0.00 | 60 | 1010.4 |
| 20260902003516 | 79 | 309 | 0.9 | 1.7 | 0.00 | 0.00 | 0.00 | 57 | 1010.3 |
| 20260902003029 | 78 | 308 | 0.9 | 1.7 | 0.00 | 0.00 | 0.00 | 60 | 1010.3 |
| 20260902002511 | 78 | 307 | 0.9 | 2.6 | 0.00 | 0.00 | 0.00 | 61 | 1010.3 |
| 20260902002021 | 78 | 307 | 0.9 | 2.6 | 0.00 | 0.00 | 0.00 | 64 | 1010.3 |
| 20260902001528 | 79 | 307 | 1.7 | 2.6 | 0.00 | 0.00 | 0.00 | 63 | 1010.3 |
| 20260902001014 | 80 | 311 | 0.0 | 0.0 | 0.00 | 0.00 | 0.00 | 57 | 1010.3 |
| 20260902000516 | 80 | 342 | 0.0 | 0.0 | 0.00 | 0.00 | 0.00 | 53 | 1010.3 |
| 20260902000019 | 80 | 291 | 0.0 | 0.0 | 0.00 | 0.00 | 0.00 | 52 | 1010.3 |
| 20260901235513 | 80 | 291 | 0.0 | 0.0 | 0.00 | 0.00 | 0.00 | 51 | 1010.3 |
| 20260901235013 | 80 | 290 | 0.0 | 0.0 | 0.00 | 0.00 | 0.00 | 52 | 1010.3 |
| 20260901234525 | 80 | 290 | 0.0 | 0.0 | 0.00 | 0.00 | 0.00 | 52 | 1010.3 |
| 20260901234018 | 80 | 290 | 0.0 | 0.0 | 0.00 | 0.00 | 0.00 | 53 | 1010.3 |
| 20260901233514 | 80 | 290 | 0.0 | 0.0 | 0.00 | 0.00 | 0.00 | 54 | 1010.3 |
| 20260901233026 | 80 | 290 | 0.0 | 0.0 | 0.00 | 0.00 | 0.00 | 55 | 1010.3 |
| 20260901232514 | 80 | 290 | 0.0 | 0.9 | 0.00 | 0.00 | 0.00 | 54 | 1010.2 |
| 20260901232013 | 80 | 290 | 0.0 | 0.9 | 0.00 | 0.00 | 0.00 | 56 | 1010.2 |
| 20260901231528 | 79 | 290 | 0.9 | 0.9 | 0.00 | 0.00 | 0.00 | 57 | 1010.1 |
| 20260901231016 | 79 | 290 | 0.9 | 1.7 | 0.00 | 0.00 | 0.00 | 60 | 1010.2 |
| 20260901230514 | 81 | 290 | 0.9 | 1.7 | 0.00 | 0.00 | 0.00 | 58 | 1010.2 |
| 20260901230034 | 81 | 349 | 0.0 | 1.7 | 0.00 | 0.00 | 0.00 | 51 | 1010.2 |
| 20260901225515 | 81 | 350 | 0.9 | 1.7 | 0.00 | 0.00 | 0.00 | 51 | 1010.3 |
| 20260901225014 | 81 | 356 | 0.9 | 1.7 | 0.00 | 0.00 | 0.00 | 51 | 1010.3 |
| 20260901224521 | 81 | 351 | 0.9 | 1.7 | 0.00 | 0.00 | 0.00 | 52 | 1010.3 |
| 20260901224021 | 81 | 345 | 0.0 | 0.9 | 0.00 | 0.00 | 0.00 | 53 | 1010.3 |
| 20260901223514 | 81 | 345 | 0.0 | 0.9 | 0.00 | 0.00 | 0.00 | 50 | 1010.4 |
| 20260901223034 | 81 | 345 | 0.0 | 0.9 | 0.00 | 0.00 | 0.00 | 51 | 1010.5 |
| 20260901222516 | 80 | 240 | 0.0 | 0.0 | 0.00 | 0.00 | 0.00 | 54 | 1010.4 |
| 20260901222016 | 81 | 240 | 0.0 | 0.0 | 0.00 | 0.00 | 0.00 | 52 | 1010.4 |
| 20260901221533 | 81 | 240 | 0.0 | 0.0 | 0.00 | 0.00 | 0.00 | 50 | 1010.4 |